Location: Caltech
(34.1382°N, 118.1253°W)
Time: 11:53:36
(UTC-07:00)

Iridium 3 - Visible Passes

Search period start: 30 October 2014 00:00
Search period end: 08 November 2014 23:00
Orbit: 776 x 779 km, 86.4° (Epoch: 30 October)

Date Brightness Start Highest point End Pass type
(mag) Time Alt. Az. Time Alt. Az. Time Alt. Az.
30 Oct 7.7 04:57:09 10° NNE 05:01:21 24° E 05:05:32 10° SE visible
30 Oct 6.3 06:37:31 10° NNW 06:42:00 30° W 06:46:29 10° SW visible
30 Oct 8.6 19:32:56 10° WSW 19:35:17 13° WNW 19:37:37 10° NW visible
31 Oct 8.6 04:25:22 10° NE 04:27:33 13° ENE 04:29:43 10° ESE visible
31 Oct 5.5 06:03:31 10° N 06:08:38 59° W 06:13:43 10° SSW visible
31 Oct 7.9 18:57:14 10° SW 19:01:29 25° W 19:05:45 10° NNW visible
01 Nov 5.7 05:29:56 10° N 05:35:09 71° E 05:40:19 10° S visible
01 Nov 6.7 18:22:48 10° SSW 18:27:48 48° W 18:32:51 10° N visible
02 Nov 7.0 03:56:46 10° NNE 04:01:32 36° E 04:06:17 10° SSE visible
02 Nov 6.7 05:38:11 10° NW 05:41:56 21° W 05:45:41 10° SW visible
03 Nov 8.0 03:24:10 10° NE 03:27:49 19° E 03:31:26 10° SE visible
03 Nov 5.9 05:03:49 10° NNW 05:08:38 39° W 05:13:25 10° SSW visible
03 Nov 8.4 17:58:23 10° WSW 18:01:42 17° WNW 18:05:03 10° NW visible
04 Nov 5.4 04:30:00 10° N 04:35:13 78° W 04:40:24 10° S visible
04 Nov 7.5 17:23:20 10° SW 17:27:57 32° W 17:32:37 10° NNW visible
05 Nov 6.2 03:56:34 10° N 04:01:41 54° E 04:06:45 10° SSE visible
05 Nov 7.1 05:39:19 10° NW 05:41:49 14° W 05:44:19 10° WSW visible
06 Nov 7.4 03:23:35 10° NNE 03:28:01 28° E 03:32:26 10° SE visible
06 Nov 6.4 05:04:18 10° NNW 05:08:35 26° W 05:12:51 10° SW visible
06 Nov 8.7 18:00:31 10° W 18:01:59 11° WNW 18:03:26 10° WNW visible
07 Nov 8.2 02:52:50 13° ENE 02:54:14 15° ENE 02:57:02 10° ESE visible
07 Nov 5.6 04:33:39 38° NW 04:35:14 51° W 04:40:15 10° SSW visible
07 Nov 8.2 17:24:10 10° SW 17:28:09 22° W 17:32:09 10° NNW visible
08 Nov 6.1 04:03:14 48° SSE 04:03:14 48° SSE 04:06:58 10° S visible
